Tracking 28126 objects as of 1-Oct-2023
HD Live streaming from Space Station
objects crossing your sky now

MORELOS 2

Track MORELOS 2 now!
MORELOS 2 is classified as:


NORAD ID: 16274
Int'l Code: 1985-109B
Perigee: 35,958.5 km
Apogee: 36,030.2 km
Inclination: 14.7 °
Period: 1,446.4 minutes
Semi major axis: 42365 km
RCS: 7.6304 m2 (large)
Launch date: November 27, 1985
Source: Mexico (MEX)
Launch site: AIR FORCE EASTERN TEST RANGE (AFETR)
Your satellite tracking list
Your tracking list is empty




NASA's NSSDC Master Catalog

Two Line Element Set (TLE):
1 16274U 85109B   23272.30629918 -.00000117  00000-0  00000-0 0  9997
2 16274  14.7370   4.1367 0008469 132.3358 252.0295  0.99560392 36486
Source of the keplerian elements: AFSPC